Location: Sungai Dangang
(2.7500°N, 113.8333°E)
Time: 22:59:58
(UTC+00:00)

Palapa 6 Rocket - Pass Details

Date: 16 May 2021
Orbit: 485 x 1216 km, 22.7° (Epoch: 15 June)

Event Time Altitude Azimuth Distance (km) Brightness Sun altitude
Exits shadow 20:15:40 29° 46° (NE) 929 4.5 -28.3°
Drops below altitude 10° 20:17:48 10° 57° (ENE) 1,735 6.3 -27.8°
Sets 20:20:11 0° 61° (ENE) 2,695 7.6 -27.3°
